Hourly Data Report for June 13, 2021

TOBERMORY RCS
ONTARIO
Current Station Operator: ECCC - MSC

45°14'00.000" N
81°38'00.000" W
213.50 m
6128330
71767
TTR

Download Data

Hourly Data (June 2021)
Hourly Data Report for June 13, 2021
TIME
LST
Temp Definition
°C
Dew Point Definition
°C
Rel Hum Definition
%
Precip. Amount Definition
mm

Wind Dir Definition
10's deg

Wind Spd Definition
km/h
Visibility Definition
km
Stn Press Definition
kPa
Hmdx Definition


Wind Chill Definition


Weather Definition


00:00 13.5 10.5 82 0.0 6 2   98.64     LegendNANA
01:00 13.7 10.3 80 0.0 5 3   98.61     LegendNANA
02:00 13.2 10.5 84 0.0 3 3   98.60     LegendNANA
03:00 14.0 10.7 80 0.0 3 5   98.60     LegendNANA
04:00 12.2 10.3 88 0.0   0   98.59     LegendNANA
05:00 14.0 12.1 88 0.0 34 5   98.61     LegendNANA
06:00 14.8 11.1 78 0.0 36 3   98.63     LegendNANA
07:00 17.0 11.4 70 0.0 31 5   98.64     LegendNANA
08:00 18.3 11.9 66 0.0 32 6   98.64     LegendNANA
09:00 16.5 11.6 73 0.0 29 14   98.67     LegendNANA
10:00 19.8 12.9 65 0.0 31 9   98.65     LegendNANA
11:00 19.5 14.1 71 0.0 31 10   98.64     LegendNANA
12:00 17.8 14.3 80 0.0 28 16   98.65     LegendNANA
13:00 21.3 15.8 71 0.0 32 11   98.60 26   LegendNANA
14:00 18.9 13.9 73 0.0 28 17   98.60     LegendNANA
15:00 20.3 14.1 68 0.0 29 17   98.59     LegendNANA
16:00 20.2 13.5 65 0.0 29 19   98.55     LegendNANA
17:00 20.5 13.0 62 0.0 29 19   98.47     LegendNANA
18:00 19.3 11.6 61 0.0 30 22   98.50     LegendNANA
19:00 18.0 10.6 62 0.0 31 14   98.48     LegendNANA
20:00 16.6 10.8 69 0.0 30 12   98.45     LegendNANA
21:00 16.5 10.7 68 0.0 31 12   98.40     LegendNANA
22:00 16.0 11.0 72 0.0 32 12   98.42     LegendNANA
23:00 16.4 11.0 70 0.0 32 13   98.44     LegendNANA

Notes on Data Quality.

Legend

  • E = Estimated
  • M = Missing
  • NA = Not Available*
  • [empty] = Indicates an unobserved value
Date modified: